BRO-2 (46940 NORAD) Tracking and Keplerian Element Data
This shows tracking and keplerian element data for the satellite.
Feedback or suggestion? Click here.
Element | Value |
Catalog | 46940 |
Name | BRO-2 |
Epoch Orbit | 941 |
Epoch Day | 21.06865332 |
Epoch Year | 2021 |
RAAN | 160.3937 |
Inclination | 97.3757 |
Eccentricity | 0.0014001 |
Argument of Perigee | 82.2233 |
Mean Anonmoly | 39.1566 |
Mean Motion | 15.20730848 |
Decay Rate | 6.84E-06 |
L1 | 1 46940U 20085M 21021.06865332 .00000684 00000-0 34127-4 0 9996 |
L2 | 2 46940 97.3757 160.3937 0014001 82.2233 39.1566 15.20730848 9410 |
Live tracking and technical data element details for BRO-2 (NORAD 46940). BRO-2 can be tracked NOW for your location showing map with azimuth and elevation plus other details from your city location.
Track the satellite on the map from your city or location and see movement details for azimuth, elevation, latitude, longitude, range, height, and movement on the map or in text.
IsCatalogInMostPopularTable: catalog: 46940, numindb: 22
Update: records affected: 1
GetName: 46940 BRO-2
Hit Count: updated at: Fri, 22 Jan 2021 15:31:30 GMT